Wind_Speed
3 3 2 2 1 1 3 3 3 3 4 4 4 4 5 5 5 5 5 6 6 6 5 4 4 5 4 4 4 5 4 3 3 3 4 3 4 4 4 5 5 6 6 6 6 7 6 6 6
4 3 3 2 1 2 5 4 3 3 4 5 5 5 5 5 6 6 5 6 6 6 6 5 5 5 5 5 5 5 5 5 4 4 4 5 5 6 6 6 6 7 7 7 7 7 6 6 7
5 4 3 3 3 4 6 5 4 4 4 5 5 5 5 5 5 6 6 6 6 6 5 6 6 6 5 5 6 6 7 6 6 5 5 6 6 7 7 7 7 7 7 8 8 8 8 8 7
6 5 4 4 5 5 5 5 5 5 5 5 5 5 6 6 6 6 6 6 6 6 6 7 7 6 6 6 7 7 7 7 7 7 7 7 7 7 7 8 8 8 8 8 9 10 9 9 9
7 6 5 5 6 6 5 5 5 5 5 5 6 5 6 7 8 7 6 6 6 5 6 7 7 7 6 7 7 7 7 8 8 8 8 9 9 8 9 9 10 10 10 10 10 11 11 11 10
8 7 6 7 7 7 6 5 5 4 5 5 6 6 6 8 8 7 7 6 5 6 7 8 8 8 8 8 9 9 8 9 9 9 9 9 9 9 10 10 10 11 11 11 11 11 12 12 12
8 8 8 8 8 8 7 6 6 6 5 5 6 6 7 8 8 7 7 7 7 7 7 8 9 9 8 9 9 10 9 10 10 9 9 8 9 10 11 11 11 12 12 12 13 13 13 14 14
8 8 8 9 9 10 8 7 7 6 6 5 5 6 7 8 8 8 7 7 7 7 8 8 9 10 9 9 9 10 9 9 10 10 9 9 10 10 11 11 11 11 12 13 14 15 15 16 16
9 9 9 9 10 10 9 8 7 6 6 6 6 6 7 7 7 7 8 8 8 8 8 9 9 9 9 10 11 11 10 10 10 11 10 11 11 11 11 11 12 12 13 14 15 16 16 17 16
10 10 10 10 10 10 9 9 8 7 7 7 7 7 7 7 7 8 9 9 10 10 10 10 10 10 11 11 11 12 11 11 11 11 11 12 12 12 12 13 13 14 14 15 15 16 17 17 17
11 11 11 10 10 10 9 9 9 8 9 9 8 8 8 8 8 10 10 10 10 10 10 10 10 11 12 12 12 12 12 12 12 12 12 12 12 13 13 13 14 15 16 16 16 17 17 18 18
12 11 12 11 11 10 10 10 10 10 10 10 10 10 9 9 9 10 11 11 11 11 10 11 12 12 12 13 13 13 13 13 13 13 12 13 13 14 14 14 15 16 16 17 17 18 18 19 20
13 12 12 11 12 11 11 11 11 11 11 11 11 11 10 10 11 11 12 11 12 12 12 12 12 12 13 13 14 15 15 14 14 14 13 13 14 15 16 16 16 16 17 17 18 18 19 20 20
14 13 13 13 12 12 13 12 12 12 12 12 12 12 11 11 12 12 13 13 13 14 14 13 13 13 13 14 15 15 14 13 14 14 14 14 15 16 17 17 17 17 17 18 18 18 19 20 20
14 14 13 13 13 13 13 13 13 13 13 12 12 12 12 12 13 13 14 14 14 15 14 14 14 14 14 14 15 14 13 14 14 14 15 16 16 17 18 18 17 17 18 18 18 18 19 19 19
15 14 13 14 14 14 14 13 15 14 14 13 13 13 13 13 13 13 14 14 15 15 15 15 15 15 15 15 14 14 13 14 14 15 15 16 16 17 17 17 17 17 18 19 19 19 19 19 19
16 15 14 15 15 15 14 14 16 15 15 14 14 14 14 15 14 14 14 15 16 16 16 16 15 15 16 15 15 14 14 14 14 15 16 16 16 16 17 17 17 17 18 19 19 20 20 21 21
17 16 15 16 16 15 15 15 15 14 14 15 15 15 15 16 15 16 15 16 17 17 17 16 16 16 16 15 14 14 14 14 14 15 15 16 17 17 17 17 17 18 19 19 19 20 21 21 22
18 17 17 17 17 16 16 15 16 15 14 15 16 16 17 16 16 17 17 18 18 18 17 17 15 15 15 15 15 14 14 14 14 15 15 16 17 17 17 17 17 18 18 19 19 20 20 21 22
19 18 17 17 17 16 16 15 15 15 15 16 16 17 17 18 17 17 18 18 18 18 17 17 16 16 16 15 14 14 14 14 14 14 15 16 17 17 17 17 17 18 19 19 19 19 20 21 21
20 18 17 17 17 17 16 15 15 15 16 17 17 18 18 19 18 17 17 18 18 17 16 16 15 15 16 15 14 14 15 15 15 15 15 16 17 17 17 18 18 19 19 19 19 18 18 18 19
19 19 18 18 17 16 16 15 15 15 15 16 17 17 18 18 18 17 17 17 17 17 16 16 15 15 16 15 15 15 15 16 15 15 16 16 17 18 18 19 19 19 19 19 19 18 19 19 20
21 19 18 18 17 16 15 15 14 15 16 16 16 17 17 17 17 16 16 16 16 16 16 16 15 15 15 16 15 16 16 15 15 16 16 17 18 18 18 18 18 18 18 18 19 19 19 20 20
21 19 18 17 17 16 15 15 15 15 15 16 16 16 16 16 16 15 15 16 16 16 16 16 15 15 15 16 17 16 16 15 15 16 16 17 17 17 18 18 18 18 18 18 19 19 19 19 20
21 18 16 16 16 16 16 16 15 14 14 15 15 15 14 14 14 14 14 15 16 16 16 16 16 16 16 16 16 16 15 15 15 16 16 17 17 18 18 18 18 19 19 19 19 19 19 19 19
20 18 17 16 15 16 17 16 16 14 14 13 13 14 14 14 14 14 15 15 16 16 15 16 16 16 16 16 16 16 15 16 16 17 17 17 18 18 18 18 18 19 19 19 19 19 18 18 19
19 19 18 17 17 16 16 15 16 14 14 14 14 13 14 14 14 14 14 15 15 15 16 17 16 16 16 15 16 16 16 17 17 17 17 17 18 18 18 18 18 19 18 18 18 18 17 18 18
20 20 18 18 17 16 16 15 15 14 15 14 14 14 13 13 14 14 14 13 14 15 16 17 17 16 16 16 16 16 16 17 17 17 17 18 18 18 18 17 18 18 18 18 18 18 18 18 18
21 21 20 19 19 17 16 17 17 16 16 15 15 14 14 14 14 13 13 13 14 15 15 16 16 16 16 16 16 16 16 16 16 16 16 16 17 17 17 18 18 18 18 18 18 18 19 18 17
21 20 20 20 20 19 18 19 19 17 17 17 16 15 15 15 15 14 14 14 14 15 16 16 17 17 17 17 16 15 15 15 14 14 15 15 16 16 17 17 18 18 17 17 17 18 18 18 17
Wind_Direction
220 220 227 231 247 279 255 269 282 290 292 292 292 298 310 311 310 306 304 306 308 311 316 324 325 326 319 317 317 318 322 323 317 307 298 296 294 283 278 260 255 253 250 239 237 241 243 239 234
216 220 232 236 204 258 261 265 272 286 293 292 292 298 305 310 309 301 303 302 301 305 308 312 315 315 314 310 310 311 312 316 309 304 297 293 288 279 272 263 253 250 249 245 249 252 253 247 240
222 226 226 231 230 244 260 263 277 285 293 295 299 304 306 310 306 300 301 301 303 301 302 305 305 303 304 307 306 308 305 307 302 297 295 289 287 281 269 260 256 251 247 248 252 252 255 253 249
227 230 232 238 248 256 265 269 271 281 294 295 301 308 313 313 308 306 307 301 299 294 293 295 295 296 298 302 302 303 302 297 297 297 294 288 282 274 268 262 257 253 247 249 253 252 254 256 256
229 235 241 251 254 257 269 275 277 282 284 291 298 305 311 316 314 310 309 304 301 293 289 291 291 289 291 293 296 295 294 297 298 299 294 290 280 273 270 263 258 256 252 252 255 254 254 256 256
229 233 238 244 248 254 266 270 276 284 296 303 302 301 311 320 317 316 312 310 313 308 298 295 293 293 295 296 294 292 290 291 294 292 291 290 279 272 266 264 262 260 256 254 255 255 256 254 254
227 227 231 238 245 253 263 270 274 286 302 306 304 299 307 315 312 309 312 319 320 312 309 303 293 291 292 294 295 292 287 288 291 292 290 288 281 278 270 267 264 264 262 259 259 258 257 256 253
231 229 236 242 244 253 262 267 268 277 291 300 299 295 302 309 308 308 310 312 315 313 306 301 295 290 288 290 290 288 285 286 289 291 289 287 286 281 275 271 268 264 263 262 261 259 258 256 255
233 230 236 240 241 250 256 263 267 275 288 293 296 295 302 305 303 306 309 309 312 311 308 301 296 295 294 294 289 285 287 290 291 289 288 286 287 283 279 273 271 270 267 265 262 259 257 257 258
233 229 234 241 245 250 254 262 267 275 284 291 293 294 298 300 302 305 306 310 311 308 307 304 302 299 297 297 293 290 294 294 290 289 292 290 286 285 282 277 275 275 274 272 266 261 258 257 257
233 233 237 241 245 251 255 258 263 270 276 282 286 286 291 294 300 305 307 309 314 312 306 301 301 301 297 297 297 295 295 292 287 287 292 289 288 287 282 278 276 275 274 272 270 267 264 262 261
234 234 239 241 244 253 257 259 260 266 271 278 280 281 283 291 297 301 304 306 310 308 303 299 300 300 298 297 297 295 292 290 286 284 286 285 285 286 283 281 279 278 277 273 271 269 267 266 265
234 236 240 244 247 255 260 261 264 268 270 276 280 276 281 287 291 297 297 299 301 305 306 301 297 300 301 300 297 295 292 289 289 284 285 285 286 286 286 285 283 281 279 277 272 270 268 267 268
236 236 239 243 248 255 260 263 265 267 270 275 279 279 282 283 288 293 295 296 297 300 303 302 299 300 301 298 293 291 290 290 290 285 285 282 285 288 287 287 285 282 280 278 274 270 270 269 269
238 239 241 244 249 254 259 260 265 267 270 273 278 280 282 283 284 288 293 296 301 299 301 302 302 299 298 295 293 291 291 292 289 286 287 285 286 286 287 289 287 283 280 278 276 274 272 271 270
240 243 245 248 249 251 255 261 266 269 270 271 274 274 276 281 283 287 293 296 301 304 304 303 302 299 296 293 292 293 292 294 290 288 288 287 290 290 290 289 289 287 282 277 277 275 273 273 274
240 243 246 251 252 254 257 263 267 267 270 271 271 272 275 280 283 286 292 296 300 303 305 304 302 298 296 295 293 293 294 294 294 294 293 290 291 292 290 289 288 286 283 280 277 275 274 274 274
239 242 245 250 255 257 259 263 267 267 269 273 274 272 276 279 281 287 292 297 300 301 302 301 298 298 297 297 297 293 294 297 296 294 295 292 291 294 292 290 287 285 284 283 279 276 274 274 275
241 243 246 249 255 259 264 264 266 269 270 271 271 272 277 278 280 286 291 295 297 298 298 298 296 297 297 297 296 295 296 297 296 292 295 295 294 295 294 295 293 289 287 286 282 279 277 277 276
237 240 245 249 255 260 262 262 264 269 270 271 271 273 278 280 281 286 289 292 294 294 295 295 295 294 293 294 294 294 295 297 295 296 296 296 295 297 297 296 294 293 291 289 285 282 280 279 277
236 239 243 248 256 263 263 264 268 271 269 270 271 274 277 281 283 284 287 290 290 292 294 294 293 294 293 293 291 294 296 299 297 297 298 298 299 298 298 297 294 293 293 291 288 284 284 283 280
235 239 243 247 254 262 262 264 266 269 269 271 273 274 276 278 283 284 286 287 290 293 292 292 292 293 293 292 291 294 295 297 297 298 298 298 299 299 296 295 294 294 295 292 287 283 284 283 282
234 240 244 248 255 260 264 265 264 267 269 272 275 274 276 278 281 282 284 286 289 291 291 291 292 292 292 292 292 294 294 297 299 300 301 301 301 301 300 298 299 297 296 293 289 286 285 284 283
235 240 246 251 256 261 260 263 265 267 272 273 273 274 278 281 279 277 282 285 288 290 291 291 291 290 290 292 292 295 295 297 300 301 302 304 305 304 303 299 298 298 297 295 291 289 287 286 284
234 238 246 252 256 260 260 261 265 268 271 275 277 278 281 283 278 278 284 285 287 289 290 290 290 290 291 292 295 297 296 297 300 301 301 303 305 306 305 303 299 299 298 295 291 289 288 287 285
233 235 240 247 252 257 261 260 263 268 272 277 280 280 282 279 276 280 285 286 287 288 289 291 290 289 291 293 294 297 297 297 297 297 297 302 305 306 305 305 304 300 298 295 294 290 289 287 286
232 234 239 246 252 257 262 261 264 267 272 275 278 280 282 281 282 284 284 285 287 288 291 293 292 292 292 293 297 297 297 297 297 295 296 301 306 305 301 302 304 302 299 297 297 294 291 290 289
234 237 238 243 249 256 262 262 263 264 269 274 278 283 282 281 283 285 283 284 287 291 293 295 294 295 294 293 295 299 301 299 298 296 297 301 304 304 303 303 305 305 301 298 297 295 293 291 289
238 241 240 244 250 256 260 260 263 267 269 270 274 274 275 276 281 284 282 288 291 293 295 298 298 299 298 297 296 299 304 304 300 298 299 302 304 305 304 303 305 304 302 299 295 294 292 290 289
241 242 243 246 251 255 259 262 264 269 269 270 273 273 274 274 279 281 283 286 290 292 294 298 300 301 299 297 297 299 303 306 305 302 302 304 306 307 308 309 308 307 304 302 300 297 296 293 290
Height
5893 5893 5894 5895 5896 5898 5897 5896 5895 5895 5894 5894 5893 5893 5893 5893 5893 5894 5891 5889 5888 5887 5886 5885 5885 5884 5883 5883 5882 5881 5880 5879 5878 5878 5877 5877 5877 5877 5876 5876 5876 5877 5877 5877 5878 5878 5879 5879 5880
5892 5893 5894 5895 5896 5897 5896 5895 5894 5894 5893 5893 5892 5892 5891 5891 5890 5889 5888 5887 5886 5886 5885 5884 5883 5883 5882 5882 5881 5880 5879 5878 5877 5877 5876 5876 5875 5875 5875 5875 5875 5875 5875 5875 5876 5877 5877 5877 5878
5891 5892 5894 5894 5895 5896 5894 5894 5893 5892 5892 5891 5891 5890 5890 5889 5888 5888 5887 5886 5885 5884 5883 5883 5882 5881 5881 5880 5879 5878 5878 5877 5876 5875 5875 5874 5874 5873 5873 5873 5873 5873 5874 5874 5874 5875 5875 5875 5876
5890 5891 5893 5894 5894 5893 5893 5892 5892 5891 5891 5890 5890 5889 5888 5888 5887 5886 5885 5884 5883 5883 5882 5881 5881 5880 5879 5878 5878 5877 5876 5875 5875 5874 5873 5872 5872 5871 5871 5871 5871 5871 5872 5872 5872 5873 5873 5873 5874
5889 5890 5892 5893 5892 5892 5891 5891 5891 5890 5890 5889 5888 5888 5887 5886 5885 5885 5884 5883 5882 5881 5881 5880 5879 5878 5877 5877 5876 5875 5874 5873 5873 5872 5871 5870 5870 5869 5869 5869 5869 5869 5869 5869 5870 5870 5871 5871 5871
5888 5889 5892 5892 5891 5891 5890 5890 5889 5889 5888 5888 5887 5886 5886 5885 5884 5883 5882 5881 5880 5880 5879 5878 5877 5877 5876 5875 5874 5873 5872 5871 5870 5869 5868 5868 5867 5867 5866 5866 5866 5866 5866 5866 5866 5867 5867 5868 5868
5887 5888 5889 5889 5889 5889 5889 5888 5888 5888 5888 5887 5886 5885 5885 5884 5883 5882 5881 5880 5879 5878 5878 5877 5876 5875 5874 5873 5872 5871 5870 5869 5868 5867 5866 5865 5865 5864 5863 5863 5863 5863 5863 5863 5863 5864 5864 5864 5865
5884 5887 5887 5888 5888 5887 5887 5887 5887 5887 5886 5886 5885 5884 5883 5883 5882 5881 5880 5879 5878 5877 5876 5875 5874 5873 5872 5871 5870 5868 5867 5866 5865 5864 5864 5863 5862 5861 5861 5860 5860 5859 5859 5859 5860 5860 5861 5861 5861
5882 5886 5886 5886 5886 5886 5885 5885 5885 5885 5884 5884 5883 5883 5882 5881 5880 5879 5878 5877 5876 5875 5874 5873 5872 5871 5869 5868 5867 5866 5864 5864 5863 5862 5861 5861 5859 5859 5858 5857 5857 5856 5856 5856 5856 5856 5856 5857 5857
5881 5883 5883 5883 5883 5884 5883 5883 5883 5883 5883 5882 5882 5881 5880 5879 5879 5878 5877 5875 5874 5873 5872 5871 5869 5868 5867 5866 5865 5863 5862 5862 5861 5859 5858 5858 5857 5856 5855 5854 5853 5853 5853 5852 5852 5852 5852 5852 5853
5878 5880 5880 5880 5881 5881 5882 5882 5881 5881 5881 5881 5880 5879 5879 5878 5877 5876 5875 5874 5872 5871 5870 5868 5867 5866 5865 5864 5862 5861 5860 5859 5858 5857 5856 5855 5854 5853 5852 5851 5850 5850 5849 5848 5848 5848 5848 5848 5848
5875 5877 5877 5878 5878 5879 5879 5880 5879 5879 5879 5879 5878 5877 5877 5876 5875 5874 5873 5872 5870 5869 5868 5866 5865 5863 5862 5861 5860 5858 5857 5856 5855 5854 5853 5852 5851 5850 5848 5847 5846 5846 5845 5844 5844 5844 5843 5844 5844
5872 5874 5874 5875 5876 5876 5877 5877 5877 5877 5876 5876 5876 5875 5875 5874 5873 5872 5871 5870 5868 5867 5865 5864 5862 5861 5859 5858 5857 5855 5853 5852 5851 5850 5849 5848 5847 5846 5844 5843 5842 5841 5840 5840 5840 5839 5839 5839 5839
5870 5871 5872 5872 5873 5873 5874 5874 5874 5874 5874 5873 5873 5873 5872 5872 5871 5869 5868 5867 5866 5864 5863 5861 5860 5858 5856 5855 5854 5852 5850 5848 5847 5846 5845 5844 5843 5842 5840 5839 5838 5836 5835 5835 5835 5835 5834 5834 5834
5866 5868 5869 5869 5870 5871 5872 5872 5872 5871 5871 5871 5870 5870 5869 5869 5868 5867 5866 5864 5863 5861 5860 5858 5857 5855 5853 5852 5850 5849 5847 5845 5844 5842 5841 5840 5839 5838 5836 5834 5833 5832 5831 5830 5830 5830 5829 5829 5829
5864 5865 5867 5867 5867 5868 5870 5870 5869 5868 5868 5868 5867 5867 5866 5866 5865 5864 5862 5861 5860 5858 5857 5855 5854 5852 5850 5848 5847 5845 5843 5842 5840 5839 5838 5836 5835 5833 5832 5830 5829 5827 5826 5825 5825 5825 5824 5824 5824
5861 5862 5864 5865 5864 5865 5866 5866 5865 5865 5864 5864 5864 5864 5863 5863 5862 5860 5859 5858 5856 5855 5853 5852 5850 5848 5847 5845 5843 5842 5840 5838 5836 5835 5834 5832 5830 5829 5827 5825 5824 5822 5821 5820 5820 5819 5819 5819 5819
5858 5860 5861 5862 5861 5862 5862 5862 5862 5861 5861 5861 5861 5860 5860 5859 5858 5857 5856 5854 5853 5851 5850 5848 5846 5845 5843 5841 5839 5838 5836 5834 5832 5831 5829 5828 5826 5824 5823 5821 5819 5818 5817 5815 5814 5814 5813 5813 5813
5854 5856 5857 5858 5858 5859 5859 5859 5859 5858 5858 5857 5857 5857 5856 5855 5855 5854 5852 5851 5849 5848 5846 5845 5843 5841 5839 5837 5835 5834 5833 5831 5829 5827 5826 5824 5822 5820 5818 5817 5815 5813 5812 5810 5809 5808 5808 5807 5807
5849 5852 5853 5854 5854 5855 5855 5856 5856 5855 5855 5854 5854 5853 5853 5852 5851 5850 5849 5847 5846 5844 5843 5841 5839 5838 5836 5834 5832 5830 5829 5827 5825 5823 5822 5820 5818 5816 5814 5812 5811 5809 5807 5806 5804 5803 5802 5801 5801
5845 5848 5850 5851 5851 5851 5852 5853 5852 5851 5851 5851 5850 5849 5849 5848 5847 5846 5845 5844 5842 5841 5839 5837 5835 5834 5832 5830 5828 5826 5825 5823 5821 5819 5818 5816 5814 5812 5810 5808 5806 5804 5802 5801 5799 5798 5797 5796 5795
5842 5843 5845 5847 5848 5849 5849 5850 5849 5848 5847 5847 5846 5845 5845 5844 5843 5842 5841 5840 5839 5838 5836 5834 5832 5830 5828 5827 5825 5823 5822 5820 5818 5815 5814 5812 5810 5808 5806 5804 5801 5799 5797 5796 5795 5793 5792 5791 5790
5837 5839 5841 5843 5844 5845 5845 5846 5847 5844 5844 5843 5842 5841 5840 5840 5839 5839 5837 5836 5835 5834 5832 5830 5828 5827 5825 5823 5821 5820 5818 5816 5814 5812 5810 5808 5805 5803 5801 5799 5796 5794 5793 5791 5789 5788 5787 5785 5784
5833 5835 5838 5839 5841 5842 5842 5842 5842 5841 5840 5839 5838 5837 5836 5836 5835 5835 5834 5833 5832 5830 5829 5827 5825 5823 5821 5820 5818 5816 5814 5812 5810 5808 5806 5803 5801 5798 5796 5794 5792 5790 5788 5786 5784 5783 5781 5780 5778
5829 5832 5835 5836 5837 5838 5838 5838 5838 5837 5836 5835 5835 5834 5833 5832 5832 5831 5830 5829 5828 5827 5825 5824 5822 5820 5818 5816 5815 5813 5811 5809 5807 5804 5802 5799 5797 5794 5792 5789 5787 5785 5783 5781 5779 5777 5776 5774 5772
5824 5828 5831 5833 5835 5835 5834 5834 5835 5834 5833 5832 5831 5831 5830 5829 5828 5827 5826 5825 5824 5823 5822 5820 5818 5816 5814 5812 5811 5809 5807 5805 5803 5800 5798 5795 5793 5790 5787 5785 5782 5780 5778 5776 5774 5772 5770 5768 5767
5820 5823 5826 5828 5829 5830 5831 5831 5830 5830 5829 5829 5828 5827 5827 5826 5824 5823 5823 5822 5821 5820 5818 5816 5814 5812 5810 5808 5807 5805 5803 5800 5798 5796 5793 5791 5788 5785 5783 5780 5778 5775 5773 5770 5768 5767 5765 5763 5761
5817 5818 5821 5823 5824 5826 5827 5827 5827 5826 5825 5825 5825 5824 5823 5823 5822 5820 5819 5819 5818 5816 5814 5813 5811 5809 5807 5805 5802 5800 5798 5796 5794 5791 5789 5786 5784 5781 5778 5775 5773 5770 5767 5765 5763 5762 5760 5758 5756
5812 5814 5816 5818 5819 5822 5823 5825 5822 5822 5821 5821 5821 5820 5820 5819 5817 5816 5816 5815 5814 5812 5811 5809 5807 5805 5803 5801 5798 5796 5794 5792 5789 5787 5785 5782 5780 5777 5774 5771 5768 5765 5762 5760 5758 5756 5754 5752 5750
5808 5810 5811 5813 5814 5815 5817 5820 5816 5817 5816 5816 5817 5816 5816 5815 5814 5813 5812 5811 5810 5808 5807 5805 5803 5801 5799 5797 5795 5793 5790 5788 5786 5783 5781 5778 5776 5773 5770 5766 5763 5760 5758 5755 5753 5751 5748 5746 5745